{"data":{"norad_id":58322,"epoch":"2026-09-19T22:03:35.125056Z","epoch_age_seconds":64529,"freshness":"FRESH","line1":"1 58322U 23174BU  26262.91915654  .00016934  00000+0  25777-3 0  9998","line2":"2 58322  97.3808 354.0723 0006815 147.3856 212.7820 15.54562458160289","mean_motion":15.54562458,"eccentricity":0.0006815,"inclination_deg":97.3808,"raan_deg":354.0723,"arg_perigee_deg":147.3856,"mean_anomaly_deg":212.782,"bstar":0.00025777,"rev_number":16028,"period_min":92.630565763991,"perigee_km":398.80317389827,"apogee_km":408.04644264295,"semimajor_km":6781.5618082706,"source":"CELESTRAK","updated_at":"2026-09-20T09:00:34.710715Z"}}